Home > Weather > Nzérékoré > Past weeks

Flag for Guinea Past Weather in Nzérékoré, Guinea — Yesterday and Last 2 Weeks

Now
75 °F

Passing clouds.


Feels Like: 74 °F
Forecast: 70 / 81 °F
Wind: No wind

Location: Roberts Field

Current Time: Jul 31, 2016 at 7:22:38 AM

Latest Report: Jul 31, 2016 at 7:00 AM


Visibility: 4 mi

Pressure: 29.92 "Hg

Humidity: 94%

Dew Point: 73 °F

Location of NzérékoréLocation

Past Weather in Nzérékoré — Graph

°F

Nzérékoré Temperature Yesterday

Maximum temperature yesterday: 81 °F (at 2:30 PM)
Minimum temperature yesterday: 73 °F (at 6:00 AM)
Average temperature yesterday: 76 °F

High & Low Weather Summary for the Past Weeks

 TemperatureHumidityPressure
High95 °F (Jul 25, 12:30 AM)100% (Jul 27, 8:30 AM)30.01 "Hg (Jul 27, 8:30 AM)
Low72 °F (Jul 20, 7:00 AM)50% (Jul 25, 12:30 AM)29.86 "Hg (Jul 16, 2:30 PM)
Average78 °F87%29.94 "Hg
* Reported Jul 16 6:00 AM — Jul 31 6:00 AM, Nzérékoré, Weather by CustomWeather, © 2016

Note: Actual official high and low records may vary slightly from our data, if they occured in-between our weather recording intervals... More about our weather records

Advertising

Nzérékoré Weather History for the Previous 24 Hours

Scroll right to see more
 ConditionsComfort  
Time TempWeatherWind HumidityBarometerVisibility
6:00 AM
Sun, Jul 31
75 °FPassing clouds.No wind94%29.92 "HgN/A
5:30 AM75 °FPassing clouds.No wind94%29.92 "HgN/A
5:00 AM75 °FPassing clouds.No wind94%29.92 "HgN/A
4:30 AM75 °FPassing clouds.No wind94%29.92 "HgN/A
4:00 AM75 °FPassing clouds.No wind94%29.92 "HgN/A
3:30 AM75 °FPassing clouds.No wind94%29.92 "HgN/A
3:00 AM75 °FPassing clouds.No wind94%29.92 "HgN/A
2:30 AM75 °FLight rain. Passing clouds.No wind94%29.92 "Hg6 mi
2:00 AM75 °FLight rain. Passing clouds.No wind94%29.95 "Hg5 mi
1:30 AM75 °FLight rain. Passing clouds.No wind94%29.95 "Hg5 mi
1:00 AM75 °FLight rain. Passing clouds.No wind94%29.95 "Hg6 mi
12:30 AM75 °FLight rain. Passing clouds.No wind94%29.98 "Hg6 mi
12:00 AM75 °FPassing clouds.No wind94%29.98 "HgN/A
11:30 PM
Sat, Jul 30
75 °FPassing clouds.No wind94%29.98 "HgN/A
11:00 PM75 °FPassing clouds.No wind94%29.98 "HgN/A
10:30 PM75 °FPassing clouds.No wind94%29.98 "HgN/A
10:00 PM75 °FRain. Passing clouds.No wind94%29.98 "HgN/A
9:30 PM77 °FLight rain. Passing clouds.No wind94%29.95 "Hg6 mi
9:00 PM77 °FLight rain. Passing clouds.No wind94%29.95 "Hg6 mi
8:30 PM77 °FLight rain. Passing clouds.No wind94%29.95 "Hg6 mi
7:30 PM77 °FPartly sunny.No wind94%29.92 "HgN/A
6:00 PM77 °FPartly sunny.No wind94%29.89 "HgN/A
5:30 PM79 °FPartly sunny.7 mph89%29.89 "HgN/A
5:00 PM79 °FPartly sunny.12 mph89%29.89 "HgN/A
4:30 PM77 °FPartly sunny.14 mph94%29.89 "HgN/A
4:00 PM77 °FRain. Partly sunny.12 mph94%29.89 "HgN/A
3:30 PM77 °FLight rain. Partly sunny.13 mph94%29.92 "Hg5 mi
3:00 PM81 °FPartly sunny.9 mph84%29.92 "HgN/A
2:30 PM81 °FPartly sunny.7 mph84%29.92 "HgN/A
2:00 PM79 °FPartly sunny.6 mph89%29.95 "HgN/A
1:30 PM79 °FPartly sunny.9 mph89%29.95 "HgN/A
1:00 PM79 °FLight rain. Partly sunny.No wind89%29.95 "Hg6 mi
12:30 PM79 °FPartly sunny.6 mph89%29.98 "HgN/A
12:00 PM77 °FLight rain. Partly sunny.No wind94%29.98 "Hg6 mi
11:30 AM77 °FLight rain. Partly sunny.No wind94%29.98 "Hg4 mi
11:00 AM75 °FLight rain. Partly sunny.No wind94%30.01 "Hg4 mi
10:30 AM75 °FLight rain. Partly sunny.No wind94%30.01 "Hg4 mi
10:00 AM75 °FLight rain. Broken clouds.No wind94%29.98 "Hg4 mi
9:30 AM73 °FRain. Broken clouds.No wind94%29.98 "Hg2 mi
9:00 AM73 °FLight rain. Mostly cloudy.No wind94%29.98 "Hg1 mi
8:30 AM73 °FLight rain. Mostly cloudy.No wind94%29.98 "Hg1 mi
8:00 AM73 °FLight rain. Mostly cloudy.No wind94%29.95 "Hg1 mi
7:30 AM73 °FLight rain. Mostly cloudy.No wind94%29.95 "Hg1 mi
7:00 AM73 °FLight rain. Partly cloudy.No wind94%29.95 "Hg2 mi
Weather by CustomWeather, © 2016

See weather overviewHow to use our weather pages